Current weather by "City, St" or "zip code"  
 

Current Conditions: Safford, Safford Municipal Airport, AZ

Fair


83.0 F

Last Updated on Sep 18 2020, 9:51 am MST
Humidity: 24%
Wind Speed: S 9.2 mph
Barometer 30.17 in
Dewpoint: 43.0 F
Visibility: 10.00 mi
Precip: --
Heat Index: 81 F
Wind Chill: NA
Current conditions at:

Safford, Safford Municipal Airport, AZ (KSAD)

Lat: 32.85722 Lon: 109.63556

Local Radar Image active severe weather and emergency alerts image image weather storm and storm spotter reports image weather observation monitoring service image
Local
Radar
Active
Alerts
Storm Reports Obs
Monitoring

Sign-up For Email & Text Message Weather Alert Notification Services



Advertise Here

Observation History for Safford, Safford Municipal Airport, AZ


Time Wind
(mph)
Vis
(mi)
Weather Precip (in) Temperature (F) Relative
Humidity
Wind
Chill
(F)
Heat
Index
(F)
Pressure
Air Dwpt altimeter
(in)
sea level
(mb)
Rmks
9:51 am MST S 9.2 10.00 Fair -- 83.0 43.0 24% NA 81 30.17 1016.4
8:51 am MST E 11.5 10.00 Fair -- 82.0 42.1 24% NA 80 30.17 1016.2
7:51 am MST E 11.5 10.00 Fair -- 76.0 36.0 23% NA NA 30.16 1015.9
6:51 am MST SE 8.1 10.00 Fair -- 71.0 36.0 28% NA NA 30.15 1015.9
5:51 am MST SE 8.1 10.00 Fair -- 67.0 34.0 30% NA NA 30.13 1015.2
4:51 am MST SE 10.4 10.00 Fair -- 69.0 33.1 26% NA NA 30.11 1014.3
3:51 am MST E 11.5 10.00 Fair -- 74.0 33.1 22% NA NA 30.10 1013.6
2:51 am MST SE 9.2 10.00 Fair -- 73.0 33.1 23% NA NA 30.09 1013.5
1:51 am MST E 9.2 10.00 Fair -- 72.0 33.1 24% NA NA 30.10 1013.5
12:51 am MST E 9.2 10.00 Fair -- 73.0 34.0 24% NA NA 30.10 1013.5
11:51 pm MST SE 5.8 10.00 Fair -- 71.0 35.1 27% NA NA 30.09 1013.5
10:51 pm MST E 5.8 10.00 Fair -- 75.0 36.0 24% NA NA 30.09 1013.4
9:51 pm MST SE 4.6 10.00 Fair -- 78.0 37.0 23% NA NA 30.08 M
8:51 pm MST SE 11.5 10.00 Fair -- 83.0 39.9 22% NA 81 30.06 1012.5
7:51 pm MST SE 10.4 10.00 Fair -- 85.0 39.9 20% NA 82 30.04 1011.8
6:51 pm MST S 4.6 10.00 Fair -- 87.0 39.9 19% NA 84 30.02 1011.2
5:51 pm MST SW 8.1 10.00 Fair -- 92.0 39.9 16% NA 88 30.00 1010.5
4:51 pm MST S 5.8 10.00 Fair -- 94.0 39.9 15% NA 90 30.01 1010.2
3:51 pm MST S 6.9 10.00 Fair -- 94.0 39.9 15% NA 90 30.02 1010.9
2:51 pm MST 5.8 10.00 Fair -- 93.0 39.9 16% NA 89 30.04 1011.6
1:51 pm MST S 9.2 10.00 Fair -- 94.0 39.9 15% NA 90 30.07 1012.3
12:51 pm MST 3.5 10.00 Fair -- 92.0 44.1 19% NA 88 30.10 1013.7
11:51 am MST S 9.2 10.00 Fair -- 91.0 42.1 18% NA 87 30.13 1014.7
10:51 am MST 6.9 10.00 Fair -- 89.0 42.1 19% NA 85 30.16 1015.4

Regional Weather Observation


Davis-Monthan Air Force Base, AZ (KDMA)

A Few Clouds
91.0 F

Tucson, Tucson International Airport, AZ (KTUS)

Fair
92.0 F

Lordsburg Municipal Airport, NM (KLSB)

Fair
63.0 F

Show Low, Show Low Regional Airport, AZ (KSOW)

Fair
77.0 F

Grant County Airport, NM (KSVC)

Fair
73.0 F

Tucson Ryan Field Airport, AZ (KRYN)

Fair
91.0 F